Weather History for Cardak, Turkey

Change the Weather History Date:

Sunday, February 17, 2013

  Actual Average Record
Temperature  
Mean Temperature 35 °F -  
Max Temperature 46 °F - - ()
Min Temperature 24 °F - - ()
Degree Days  
Heating Degree Days 30    
Moisture  
Dew Point 30 °F    
Average Humidity 80    
Maximum Humidity 100    
Minimum Humidity 46    
Precipitation  
Precipitation 0.00 in - - ()
Sea Level Pressure  
Sea Level Pressure 29.95 in    
Wind  
Wind Speed 3 mph ()    
Max Wind Speed 10 mph    
Max Gust Speed -    
Visibility 5.9 miles    
Events Rain , Snow    
T = Trace of Precipitation, MM = Missing Value Source: Averaged Metar Reports

Daily Weather History Graph

Daily Weather History Graph

Search for Another Location

Airport:

Trip Planner

Search our weather history database for the weather conditions in past years. The results will help you decide how hot, cold, wet, or windy it might be!

Date:

Astronomy

Feb. 17, 2013 Rise Set
Actual Time 6:48 AM EET 5:42 PM EET
Civil Twilight 6:21 AM EET 6:09 PM EET
Nautical Twilight 5:51 AM EET 6:39 PM EET
Astronomical Twilight 5:20 AM EET 7:10 PM EET
Moon 10:36 AM EET 12:11 AM EET
Length of Visible Light 11h 47m
Length of Day
10h 53m
Waxing Crescent, 46% of the Moon is Illuminated
Feb 17
Waxing Crescent
Feb 17
First Quarter
Feb 25
Full
Mar 4
Last Quarter
Mar 11
New

Hourly Weather History & Observations

Time (EET) Temp. Windchill Dew Point Humidity Pressure Visibility Wind Dir Wind Speed Gust Speed Precip Events Conditions
12:50 AM 30.2 °F - 28.4 °F 93% 30.01 in - WSW 1.2 mph - N/A   Clear
1:50 AM 28.4 °F - 26.6 °F 93% 30.01 in - Calm Calm - N/A   Clear
2:50 AM 28.4 °F - 28.4 °F 100% 30.01 in - Calm Calm - N/A   Clear
3:50 AM 26.6 °F - 24.8 °F 93% 29.98 in - Calm Calm - N/A   Clear
4:50 AM 24.8 °F - 24.8 °F 100% 29.98 in - Calm Calm - N/A   Clear
5:50 AM 26.6 °F - 26.6 °F 100% 29.98 in - Calm Calm - N/A   Clear
6:50 AM 24.8 °F - 24.8 °F 100% 29.98 in 6.2 mi Calm Calm - N/A   Scattered Clouds
7:50 AM 32.0 °F - 30.2 °F 93% 29.98 in 5.0 mi Calm Calm - N/A   Scattered Clouds
8:50 AM 33.8 °F 27.0 °F 32.0 °F 93% 29.98 in 6.2 mi East 8.1 mph - N/A   Scattered Clouds
9:50 AM 37.4 °F 32.8 °F 33.8 °F 87% 29.98 in 6.2 mi ENE 5.8 mph - N/A   Scattered Clouds
10:50 AM 39.2 °F 33.0 °F 35.6 °F 87% 29.98 in 6.2 mi ENE 9.2 mph - N/A   Scattered Clouds
11:50 AM 42.8 °F 37.0 °F 33.8 °F 70% 29.95 in 6.2 mi ENE 10.4 mph - N/A   Scattered Clouds
12:50 PM 44.6 °F 40.2 °F 28.4 °F 53% 29.95 in 6.2 mi East 8.1 mph - N/A   Scattered Clouds
1:50 PM 46.4 °F 42.4 °F 30.2 °F 53% 29.92 in 6.2 mi ENE 8.1 mph - N/A   Scattered Clouds
2:50 PM 46.4 °F 41.9 °F 30.2 °F 53% 29.89 in 6.2 mi East 9.2 mph - N/A   Mostly Cloudy
3:50 PM 46.4 °F 42.4 °F 26.6 °F 46% 29.89 in 6.2 mi East 8.1 mph - N/A   Mostly Cloudy
4:50 PM 44.6 °F 41.4 °F 30.2 °F 57% 29.89 in 6.2 mi ESE 5.8 mph - N/A   Mostly Cloudy
5:50 PM 44.6 °F 40.7 °F 26.6 °F 49% 29.89 in 6.2 mi South 6.9 mph - N/A   Mostly Cloudy
6:50 PM 41.0 °F 37.1 °F 30.2 °F 65% 29.92 in 6.2 mi Variable 5.8 mph - N/A   Mostly Cloudy
7:50 PM 39.2 °F 37.0 °F 33.8 °F 81% 29.92 in 5.6 mi East 3.5 mph - N/A Rain Light Rain
8:50 PM 39.2 °F - 33.8 °F 81% 29.92 in 5.6 mi Calm Calm - N/A Rain Light Rain
9:50 PM 37.4 °F - 35.6 °F 93% 29.92 in 5.6 mi SSE 2.3 mph - N/A Rain Light Rain
10:50 PM 37.4 °F - 35.6 °F 93% 29.92 in 5.0 mi West 1.2 mph - N/A Rain , Snow Light Rain
11:50 PM 35.6 °F - 33.8 °F 93% 29.92 in 5.0 mi Calm Calm - N/A Rain , Snow Light Rain